TimeCST,TemperatureF,Dew PointF,Humidity,Sea Level PressureIn,VisibilityMPH,Wind Direction,Wind SpeedMPH,Gust SpeedMPH,PrecipitationIn,Events,Conditions,WindDirDegrees,DateUTC
12:15 AM,44.6,41.5,89,30.26,10.0,Calm,Calm,-,N/A,,Overcast,0,2012-11-16 06:15:00
12:35 AM,44.1,41.0,89,30.26,7.0,Calm,Calm,-,N/A,,Overcast,0,2012-11-16 06:35:00
12:55 AM,47.3,44.1,88,30.26,10.0,Calm,Calm,-,N/A,,Overcast,0,2012-11-16 06:55:00
1:15 AM,47.3,43.7,87,30.26,10.0,Calm,Calm,-,N/A,,Overcast,0,2012-11-16 07:15:00
1:35 AM,47.3,43.9,88,30.26,10.0,Calm,Calm,-,N/A,,Overcast,0,2012-11-16 07:35:00
1:55 AM,47.3,43.9,88,30.26,10.0,Calm,Calm,-,N/A,,Overcast,0,2012-11-16 07:55:00
2:15 AM,47.3,44.1,88,30.26,7.0,Calm,Calm,-,N/A,,Overcast,0,2012-11-16 08:15:00
2:35 AM,47.3,44.1,88,30.26,10.0,Calm,Calm,-,N/A,,Overcast,0,2012-11-16 08:35:00
2:55 AM,49.6,46.4,89,30.26,10.0,Calm,Calm,-,N/A,,Overcast,0,2012-11-16 08:55:00
3:15 AM,47.3,44.1,88,30.25,7.0,Calm,Calm,-,N/A,,Overcast,0,2012-11-16 09:15:00
3:35 AM,47.3,44.1,88,30.26,7.0,Calm,Calm,-,N/A,,Overcast,0,2012-11-16 09:35:00
3:55 AM,47.3,44.2,89,30.26,10.0,Calm,Calm,-,N/A,,Overcast,0,2012-11-16 09:55:00
4:15 AM,47.3,44.1,88,30.26,7.0,Calm,Calm,-,N/A,,Overcast,0,2012-11-16 10:15:00
4:35 AM,47.3,43.9,88,30.26,10.0,Calm,Calm,-,N/A,,Overcast,0,2012-11-16 10:35:00
4:55 AM,47.3,43.7,87,30.26,10.0,Calm,Calm,-,N/A,,Overcast,0,2012-11-16 10:55:00
5:15 AM,47.3,43.9,88,30.26,7.0,Calm,Calm,-,N/A,,Overcast,0,2012-11-16 11:15:00
5:35 AM,46.9,43.9,89,30.26,10.0,Calm,Calm,-,N/A,,Overcast,0,2012-11-16 11:35:00
5:55 AM,44.6,41.4,88,30.27,10.0,Calm,Calm,-,N/A,,Scattered Clouds,0,2012-11-16 11:55:00
6:15 AM,44.2,41.2,89,30.27,7.0,Calm,Calm,-,N/A,,Clear,0,2012-11-16 12:15:00
6:35 AM,43.3,40.3,89,30.28,5.0,Calm,Calm,-,N/A,,Clear,0,2012-11-16 12:35:00
6:55 AM,43.3,40.5,90,30.29,7.0,North,3.5,-,N/A,,Clear,360,2012-11-16 12:55:00
7:15 AM,44.6,41.5,89,30.29,7.0,Calm,Calm,-,N/A,,Clear,0,2012-11-16 13:15:00
7:35 AM,47.3,43.7,87,30.30,10.0,Calm,Calm,-,N/A,,Clear,0,2012-11-16 13:35:00
7:55 AM,49.6,45.3,85,30.30,10.0,Calm,Calm,-,N/A,,Clear,0,2012-11-16 13:55:00
8:15 AM,49.6,44.1,81,30.31,10.0,Calm,Calm,-,N/A,,Clear,0,2012-11-16 14:15:00
8:35 AM,52.2,45.0,76,30.31,10.0,NE,3.5,-,N/A,,Clear,50,2012-11-16 14:35:00
8:55 AM,54.7,46.0,73,30.31,10.0,NE,3.5,-,N/A,,Clear,40,2012-11-16 14:55:00
9:15 AM,54.7,43.5,66,30.31,10.0,East,4.6,-,N/A,,Clear,90,2012-11-16 15:15:00
9:35 AM,56.1,42.8,61,30.31,10.0,NE,4.6,-,N/A,,Clear,40,2012-11-16 15:35:00
9:55 AM,57.2,43.2,59,30.31,10.0,ESE,4.6,-,N/A,,Clear,110,2012-11-16 15:55:00
10:15 AM,57.2,42.1,57,30.31,10.0,NE,3.5,-,N/A,,Clear,40,2012-11-16 16:15:00
10:35 AM,59.9,43.2,54,30.31,10.0,East,5.8,-,N/A,,Clear,90,2012-11-16 16:35:00
10:55 AM,60.1,41.7,51,30.30,10.0,ENE,6.9,-,N/A,,Clear,70,2012-11-16 16:55:00
11:15 AM,61.0,41.5,49,30.29,10.0,North,5.8,-,N/A,,Clear,10,2012-11-16 17:15:00
11:35 AM,61.0,40.6,47,30.28,10.0,Calm,Calm,-,N/A,,Clear,0,2012-11-16 17:35:00
11:55 AM,62.2,39.7,44,30.27,10.0,NNW,5.8,-,N/A,,Clear,340,2012-11-16 17:55:00
12:15 PM,62.6,37.6,40,30.27,10.0,NNE,5.8,-,N/A,,Clear,20,2012-11-16 18:15:00
12:35 PM,63.0,37.9,40,30.26,10.0,NNE,3.5,-,N/A,,Clear,30,2012-11-16 18:35:00
12:55 PM,64.4,39.2,40,30.25,10.0,NNE,4.6,-,N/A,,Clear,20,2012-11-16 18:55:00
1:15 PM,64.8,37.2,36,30.24,10.0,North,3.5,-,N/A,,Clear,350,2012-11-16 19:15:00
1:35 PM,64.8,32.0,29,30.24,10.0,North,6.9,-,N/A,,Clear,360,2012-11-16 19:35:00
1:55 PM,67.3,32.9,28,30.23,10.0,North,8.1,-,N/A,,Clear,360,2012-11-16 19:55:00
2:15 PM,67.3,31.8,27,30.23,10.0,ENE,4.6,-,N/A,,Clear,60,2012-11-16 20:15:00
2:35 PM,67.3,32.4,27,30.23,10.0,ENE,3.5,-,N/A,,Clear,70,2012-11-16 20:35:00
2:55 PM,66.0,31.8,28,30.23,10.0,Calm,Calm,-,N/A,,Clear,0,2012-11-16 20:55:00
3:15 PM,67.3,32.2,27,30.23,10.0,Calm,Calm,-,N/A,,Clear,0,2012-11-16 21:15:00
3:35 PM,66.0,33.4,30,30.24,10.0,East,4.6,-,N/A,,Clear,90,2012-11-16 21:35:00
3:55 PM,64.8,32.0,29,30.23,10.0,Calm,Calm,-,N/A,,Clear,0,2012-11-16 21:55:00
4:15 PM,63.3,32.4,31,30.24,10.0,Calm,Calm,-,N/A,,Clear,0,2012-11-16 22:15:00
4:35 PM,62.2,34.3,35,30.24,10.0,NE,3.5,-,N/A,,Clear,50,2012-11-16 22:35:00
4:55 PM,57.2,44.8,63,30.25,10.0,Calm,Calm,-,N/A,,Clear,0,2012-11-16 22:55:00
5:15 PM,55.4,40.6,58,30.25,10.0,Calm,Calm,-,N/A,,Clear,0,2012-11-16 23:15:00
5:35 PM,54.7,41.0,60,30.26,10.0,Calm,Calm,-,N/A,,Clear,0,2012-11-16 23:35:00
5:55 PM,54.7,40.1,58,30.26,10.0,Calm,Calm,-,N/A,,Clear,0,2012-11-16 23:55:00
6:15 PM,54.7,41.0,60,30.26,10.0,Calm,Calm,-,N/A,,Clear,0,2012-11-17 00:15:00
6:35 PM,54.7,37.8,53,30.27,10.0,North,3.5,-,N/A,,Clear,10,2012-11-17 00:35:00
6:55 PM,54.7,36.9,51,30.27,10.0,North,4.6,-,N/A,,Clear,10,2012-11-17 00:55:00
7:15 PM,54.7,38.5,54,30.27,10.0,Calm,Calm,-,N/A,,Clear,0,2012-11-17 01:15:00
7:35 PM,49.6,40.5,71,30.28,10.0,Calm,Calm,-,N/A,,Clear,0,2012-11-17 01:35:00
7:55 PM,49.6,41.0,72,30.28,10.0,Calm,Calm,-,N/A,,Clear,0,2012-11-17 01:55:00
8:15 PM,49.6,40.5,71,30.29,10.0,Calm,Calm,-,N/A,,Clear,0,2012-11-17 02:15:00
8:35 PM,49.6,42.8,77,30.29,10.0,Calm,Calm,-,N/A,,Clear,0,2012-11-17 02:35:00
8:55 PM,43.3,37.8,81,30.29,10.0,Calm,Calm,-,N/A,,Clear,0,2012-11-17 02:55:00
9:15 PM,44.6,38.7,80,30.30,10.0,Calm,Calm,-,N/A,,Clear,0,2012-11-17 03:15:00
9:35 PM,44.6,38.7,80,30.30,10.0,Calm,Calm,-,N/A,,Clear,0,2012-11-17 03:35:00
10:15 PM,40.5,36.1,85,30.31,10.0,Calm,Calm,-,N/A,,Clear,0,2012-11-17 04:15:00
10:35 PM,40.8,35.8,82,30.31,10.0,Calm,Calm,-,N/A,,Clear,0,2012-11-17 04:35:00
10:55 PM,40.1,35.6,84,30.31,10.0,Calm,Calm,-,N/A,,Clear,0,2012-11-17 04:55:00
11:15 PM,37.0,32.9,85,30.31,10.0,Calm,Calm,-,N/A,,Clear,0,2012-11-17 05:15:00
11:35 PM,39.6,36.5,89,30.31,10.0,Calm,Calm,-,N/A,,Clear,0,2012-11-17 05:35:00
11:55 PM,39.6,35.8,86,30.31,10.0,Calm,Calm,-,N/A,,Clear,0,2012-11-17 05:55:00